When you browse on this site, cookies collect data to enhance your experience and personalize the content and advertising you see.
Visit our Privacy Policy to learn more. By continuing to use the site, you agree to this use of cookies and data.
  • In Latvia
  • List of Countries
  • For 7 days
  • Water Temperature
  • Satellite Maps
  • Weather Map
  • Weather Widgets
  • user-avatar
    Login

    Hourly Weather Salzburg

    Today, 15 July, Monday

    Time Temperature Precipitation Wind Pressure Humidity
    00:00 +4°C° 0 mm 0 mps 624 mmHg 94%
    01:00 +5°C° 0 mm 1 mps 624 mmHg 95%
    02:00 +5°C° 0 mm 1 mps 624 mmHg 95%
    03:00 +4°C° 0 mm 1 mps 624 mmHg 95%
    04:00 +4°C° 0 mm 1 mps 624 mmHg 95%
    05:00 +5°C° 0 mm 0 mps 624 mmHg 93%
    06:00 +6°C° 0 mm 0 mps 625 mmHg 92%
    07:00 +9°C° 0 mm 1 mps 626 mmHg 91%
    08:00 +11°C° 0 mm 1 mps 626 mmHg 81%
    09:00 +13°C° 0 mm 1 mps 627 mmHg 70%
    10:00 +15°C° 0 mm 1 mps 627 mmHg 60%
    11:00 +15°C° 0.4 mm 2 mps 627 mmHg 64%
    12:00 +15°C° 0.4 mm 2 mps 627 mmHg 68%
    13:00 +15°C° 0 mm 2 mps 627 mmHg 67%
    14:00 +15°C° 0.5 mm 2 mps 627 mmHg 69%
    15:00 +14°C° 0.5 mm 2 mps 627 mmHg 71%
    16:00 +14°C° 0.5 mm 1 mps 627 mmHg 73%
    17:00 +13°C° 0.4 mm 1 mps 627 mmHg 78%
    18:00 +12°C° 0.4 mm 1 mps 626 mmHg 84%
    19:00 +11°C° 0.4 mm 1 mps 626 mmHg 89%
    20:00 +10°C° 0.1 mm 1 mps 626 mmHg 90%
    21:00 +8°C° 0.1 mm 1 mps 626 mmHg 92%
    22:00 +7°C° 0.1 mm 1 mps 625 mmHg 94%
    23:00 +6°C° 0 mm 1 mps 625 mmHg 94%

    Tomorrow, 16 July, Tuesday

    Time Temperature Precipitation Wind Pressure Humidity
    00:00 +6°C° 0 mm 1 mps 625 mmHg 94%
    01:00 +6°C° 0 mm 1 mps 625 mmHg 94%
    02:00 +6°C° 0 mm 1 mps 625 mmHg 95%
    03:00 +5°C° 0 mm 1 mps 625 mmHg 95%
    04:00 +5°C° 0 mm 1 mps 625 mmHg 96%
    05:00 +7°C° 0 mm 1 mps 626 mmHg 93%
    06:00 +7°C° 0 mm 0 mps 626 mmHg 91%
    07:00 +9°C° 0 mm 0 mps 627 mmHg 89%
    08:00 +12°C° 0 mm 1 mps 628 mmHg 79%
    09:00 +14°C° 0 mm 1 mps 628 mmHg 68%
    10:00 +16°C° 0 mm 1 mps 629 mmHg 58%
    11:00 +16°C° 0.1 mm 1 mps 629 mmHg 56%
    12:00 +17°C° 0.1 mm 2 mps 629 mmHg 54%
    13:00 +17°C° 0.1 mm 2 mps 629 mmHg 52%
    14:00 +17°C° 0 mm 2 mps 629 mmHg 52%
    15:00 +17°C° 0 mm 2 mps 629 mmHg 52%
    16:00 +17°C° 0 mm 2 mps 629 mmHg 52%
    17:00 +16°C° 0 mm 2 mps 628 mmHg 63%
    18:00 +14°C° 0 mm 2 mps 628 mmHg 74%
    19:00 +13°C° 0 mm 1 mps 627 mmHg 85%
    20:00 +11°C° 0 mm 1 mps 627 mmHg 89%
    21:00 +10°C° 0 mm 1 mps 627 mmHg 93%
    22:00 +7°C° 0 mm 0 mps 627 mmHg 96%
    23:00 +7°C° 0 mm 0 mps 627 mmHg 96%

    Day after tomorrow, 17 July, Wednesday

    Time Temperature Precipitation Wind Pressure Humidity
    00:00 +8°C° 0 mm 1 mps 627 mmHg 96%
    01:00 +7°C° 0 mm 1 mps 627 mmHg 96%
    02:00 +7°C° 0 mm 1 mps 626 mmHg 96%
    03:00 +7°C° 0 mm 1 mps 626 mmHg 96%
    04:00 +7°C° 0 mm 1 mps 626 mmHg 96%
    05:00 +8°C° 0 mm 1 mps 626 mmHg 92%
    06:00 +9°C° 0 mm 0 mps 627 mmHg 88%
    07:00 +11°C° 0 mm 0 mps 627 mmHg 84%
    08:00 +13°C° 0 mm 0 mps 628 mmHg 73%
    09:00 +16°C° 0 mm 1 mps 628 mmHg 62%
    10:00 +19°C° 0 mm 1 mps 629 mmHg 51%
    11:00 +20°C° 0 mm 1 mps 629 mmHg 49%
    12:00 +19°C° 0 mm 2 mps 629 mmHg 46%
    13:00 +20°C° 0 mm 2 mps 629 mmHg 44%
    14:00 +19°C° 0.3 mm 2 mps 628 mmHg 52%
    15:00 +18°C° 0.3 mm 2 mps 628 mmHg 61%
    16:00 +17°C° 0.3 mm 2 mps 627 mmHg 69%
    17:00 +16°C° 1 mm 2 mps 627 mmHg 76%
    18:00 +14°C° 1 mm 1 mps 626 mmHg 83%
    19:00 +13°C° 1 mm 1 mps 626 mmHg 90%
    20:00 +12°C° 0.6 mm 1 mps 626 mmHg 91%
    21:00 +11°C° 0.6 mm 1 mps 626 mmHg 91%
    22:00 +10°C° 0.6 mm 1 mps 625 mmHg 92%
    23:00 +9°C° 0 mm 1 mps 625 mmHg 92%

    18 July, Thursday

    Time Temperature Precipitation Wind Pressure Humidity
    00:00 +9°C° 0 mm 1 mps 625 mmHg 92%
    01:00 +8°C° 0 mm 1 mps 625 mmHg 93%
    02:00 +8°C° 0 mm 1 mps 624 mmHg 93%
    03:00 +8°C° 0 mm 1 mps 624 mmHg 93%
    04:00 +7°C° 0 mm 1 mps 624 mmHg 93%
    05:00 +9°C° 0 mm 1 mps 625 mmHg 92%
    06:00 +9°C° 0 mm 0 mps 625 mmHg 91%
    07:00 +10°C° 0 mm 0 mps 626 mmHg 89%
    08:00 +12°C° 0.1 mm 0 mps 626 mmHg 80%
    09:00 +14°C° 0.1 mm 0 mps 627 mmHg 70%
    10:00 +16°C° 0.1 mm 0 mps 628 mmHg 60%
    11:00 +19°C° 0.2 mm 1 mps 628 mmHg 59%
    12:00 +19°C° 0.2 mm 1 mps 628 mmHg 58%
    13:00 +18°C° 0.2 mm 2 mps 628 mmHg 57%
    14:00 +18°C° 0.8 mm 1 mps 627 mmHg 65%
    15:00 +16°C° 0.8 mm 1 mps 627 mmHg 73%
    16:00 +15°C° 0.8 mm 1 mps 627 mmHg 81%
    17:00 +14°C° 0.8 mm 1 mps 626 mmHg 84%
    18:00 +13°C° 0.8 mm 0 mps 626 mmHg 87%
    19:00 +12°C° 0.8 mm 0 mps 626 mmHg 90%
    20:00 +10°C° 0.3 mm 0 mps 626 mmHg 91%
    21:00 +10°C° 0.3 mm 1 mps 626 mmHg 91%
    22:00 +9°C° 0.3 mm 1 mps 626 mmHg 92%
    23:00 +9°C° 0 mm 1 mps 626 mmHg 93%

    19 July, Friday

    Time Temperature Precipitation Wind Pressure Humidity
    00:00 +8°C° 0 mm 1 mps 625 mmHg 93%
    01:00 +8°C° 0 mm 1 mps 625 mmHg 94%
    02:00 +8°C° 0 mm 1 mps 625 mmHg 93%
    03:00 +8°C° 0 mm 1 mps 625 mmHg 93%
    04:00 +8°C° 0 mm 1 mps 625 mmHg 93%
    05:00 +9°C° 0 mm 1 mps 626 mmHg 92%
    06:00 +10°C° 0 mm 1 mps 627 mmHg 91%
    07:00 +11°C° 0 mm 0 mps 627 mmHg 90%
    08:00 +14°C° 0.2 mm 1 mps 628 mmHg 79%
    09:00 +16°C° 0.2 mm 1 mps 629 mmHg 68%
    10:00 +19°C° 0.2 mm 1 mps 630 mmHg 57%
    11:00 +19°C° 0.3 mm 1 mps 630 mmHg 56%
    12:00 +19°C° 0.3 mm 1 mps 630 mmHg 54%
    13:00 +19°C° 0.3 mm 2 mps 630 mmHg 53%
    14:00 +18°C° 0.1 mm 2 mps 630 mmHg 54%
    15:00 +18°C° 0.1 mm 2 mps 630 mmHg 56%
    16:00 +18°C° 0.1 mm 2 mps 629 mmHg 58%
    17:00 +16°C° 0.3 mm 1 mps 629 mmHg 68%
    18:00 +15°C° 0.3 mm 1 mps 629 mmHg 79%
    19:00 +12°C° 0.3 mm 0 mps 629 mmHg 89%
    20:00 +11°C° 0.1 mm 0 mps 629 mmHg 90%
    21:00 +11°C° 0.1 mm 1 mps 628 mmHg 91%
    22:00 +10°C° 0.1 mm 1 mps 628 mmHg 92%
    23:00 +10°C° 0 mm 1 mps 628 mmHg 92%

    20 July, Saturday

    Time Temperature Precipitation Wind Pressure Humidity
    00:00 +9°C° 0 mm 1 mps 628 mmHg 92%
    01:00 +9°C° 0 mm 1 mps 628 mmHg 92%
    02:00 +9°C° 0 mm 1 mps 628 mmHg 92%
    03:00 +9°C° 0 mm 1 mps 628 mmHg 92%
    04:00 +9°C° 0 mm 1 mps 628 mmHg 91%
    05:00 +10°C° 0 mm 1 mps 629 mmHg 89%
    06:00 +12°C° 0 mm 1 mps 629 mmHg 87%
    07:00 +13°C° 0 mm 1 mps 630 mmHg 84%
    08:00 +16°C° 0 mm 1 mps 631 mmHg 72%
    09:00 +20°C° 0 mm 1 mps 632 mmHg 60%
    10:00 +21°C° 0 mm 0 mps 633 mmHg 47%
    11:00 +24°C° 0 mm 1 mps 633 mmHg 44%
    12:00 +24°C° 0 mm 1 mps 633 mmHg 42%
    13:00 +25°C° 0 mm 1 mps 633 mmHg 39%
    14:00 +24°C° 0.2 mm 1 mps 633 mmHg 49%
    15:00 +21°C° 0.2 mm 2 mps 632 mmHg 59%
    16:00 +20°C° 0.2 mm 2 mps 631 mmHg 68%
    17:00 +19°C° 2 mm 1 mps 631 mmHg 77%
    18:00 +16°C° 2 mm 1 mps 630 mmHg 85%
    19:00 +15°C° 2 mm 1 mps 630 mmHg 93%
    20:00 +14°C° 2.2 mm 1 mps 630 mmHg 95%
    21:00 +13°C° 2.2 mm 1 mps 630 mmHg 96%
    22:00 +12°C° 2.2 mm 1 mps 630 mmHg 98%
    23:00 +12°C° 3 mm 1 mps 630 mmHg 98%
    Show more